Weather History for Tucuman, Argentina

Change the Weather History Date:

Sunday, December 30, 2012

  Actual Average Record
Temperature  
Mean Temperature 83 °F -  
Max Temperature 98 °F 86 °F 98 °F (2012)
Min Temperature 68 °F 67 °F 62 °F (2003)
Cooling Degree Days 18    
Growing Degree Days 33 (Base 50)    
Moisture  
Dew Point 63 °F    
Average Humidity 51    
Maximum Humidity 78    
Minimum Humidity 30    
Precipitation  
Precipitation 0.00 in - - ()
Sea Level Pressure  
Sea Level Pressure 29.71 in    
Wind  
Wind Speed 5 mph ()    
Max Wind Speed 14 mph    
Max Gust Speed 23 mph    
Visibility 6.6 miles    
Events      
Averages and records for this station are not official NWS values.
T = Trace of Precipitation, MM = Missing Value Source: Averaged Metar Reports

Daily Weather History Graph

Daily Weather History Graph

Search for Another Location

Airport:

Trip Planner

Search our weather history database for the weather conditions in past years. The results will help you decide how hot, cold, wet, or windy it might be!

Date:

Astronomy

Dec. 30, 2012 Rise Set
Actual Time 6:29 AM ART 8:17 PM ART
Civil Twilight 6:02 AM ART 8:43 PM ART
Nautical Twilight 5:31 AM ART 9:15 PM ART
Astronomical Twilight 4:57 AM ART 9:48 PM ART
Moon 9:47 PM ART (12/30) 8:22 AM ART (12/30)
Length of Visible Light 14h 40m
Length of Day
13h 48m
Waning Gibbous, 96% of the Moon is Illuminated
Dec 30
Waning Gibbous
Jan 5
Last Quarter
Jan 11
New
Jan 18
First Quarter
Jan 27
Full

Hourly Weather History & Observations

Time (ART) Temp. Heat Index Dew Point Humidity Pressure Visibility Wind Dir Wind Speed Gust Speed Precip Events Conditions
12:00 AM 78.8 °F - 64.4 °F 61% 29.77 in - NW 5.8 mph - N/A   Clear
1:00 AM 78.8 °F - 60.8 °F 54% 29.77 in - NW 6.9 mph - N/A   Clear
2:00 AM 75.2 °F - 62.6 °F 65% 29.77 in - NW 6.9 mph - N/A   Clear
3:00 AM 71 °F - 62 °F 65% 29.66 in 9 mi North 4.6 mph - -  
3:00 AM 71.6 °F - 60.8 °F 69% 29.77 in - North 4.6 mph - N/A   Clear
4:00 AM 73.4 °F - 62.6 °F 69% 29.77 in - SE 4.6 mph - N/A   Clear
5:00 AM 69.8 °F - 60.8 °F 73% 29.77 in - NW 2.3 mph - N/A   Clear
6:00 AM 68.0 °F - 60.8 °F 78% 29.77 in - NW 6.9 mph - N/A   Clear
7:00 AM 68.0 °F - 60.8 °F 78% 29.80 in - NW 4.6 mph - N/A   Clear
8:00 AM 75.2 °F - 62.6 °F 65% 29.80 in - West 4.6 mph - N/A   Clear
9:00 AM 78.8 °F - 62.6 °F 57% 29.83 in - West 3.5 mph - N/A   Clear
10:00 AM 84.2 °F 85.6 °F 64.4 °F 51% 29.80 in - SW 3.5 mph - N/A   Clear
11:00 AM 87.8 °F 89.4 °F 64.4 °F 46% 29.80 in - SE 3.5 mph - N/A   Clear
12:00 PM 91.4 °F 93.2 °F 64.4 °F 41% 29.77 in 6.2 mi East 6.9 mph - N/A   Partly Cloudy
1:00 PM 95.0 °F 97.0 °F 64.4 °F 36% 29.74 in 6.2 mi Calm Calm - N/A   Partly Cloudy
2:00 PM 96.8 °F 98.0 °F 62.6 °F 32% 29.68 in 6.2 mi East 5.8 mph - N/A   Partly Cloudy
3:00 PM 96.8 °F 98.0 °F 62.6 °F 32% 29.68 in 6.2 mi NE 5.8 mph - N/A   Scattered Clouds
4:00 PM 91.4 °F 95.4 °F 68.0 °F 46% 29.65 in 6.2 mi South 4.6 mph - N/A   Partly Cloudy
5:00 PM 96.8 °F 103.1 °F 69.8 °F 41% 29.62 in 6.2 mi NE 2.3 mph - N/A   Partly Cloudy
6:00 PM 98.6 °F 100.0 °F 62.6 °F 30% 29.59 in 6.2 mi NE 13.8 mph 23.0 mph N/A   Scattered Clouds
7:00 PM 96.8 °F 99.0 °F 64.4 °F 34% 29.59 in 6.2 mi NE 13.8 mph - N/A   Scattered Clouds
8:00 PM 93.2 °F 93.3 °F 60.8 °F 34% 29.62 in 6.2 mi NE 11.5 mph - N/A   Scattered Clouds
9:00 PM 88 °F - 62 °F 32% 29.52 in 9 mi NNE 11.5 mph - -  
9:00 PM 87.8 °F 88.5 °F 62.6 °F 43% 29.65 in 6.2 mi NNE 11.5 mph - N/A   Scattered Clouds
10:00 PM 86.0 °F 86.6 °F 62.6 °F 45% 29.65 in 6.2 mi North 9.2 mph - N/A   Scattered Clouds
11:00 PM 86.0 °F 86.1 °F 60.8 °F 43% 29.68 in 6.2 mi North 6.9 mph - N/A   Partly Cloudy